Location: The Saddle
(36.8333°N, 80.3417°W)
Time: 18:33:53
(UTC-05:00)

A-11 Canister half - Pass Details

Date: 16 December 2023
Orbit: 1526 x 1682 km, 47.3° (Epoch: 25 February)

Event Time Altitude Azimuth Distance (km) Brightness Sun altitude
Rises 23:20:40 0° 301° (WNW) 4,929 11.9 -71.8°
Enters shadow 23:21:42 - 300° (WNW) 4,612 11.7 -72.0°
Reaches altitude 10° 23:23:58 10° 297° (WNW) 3,929 - -72.3°
Maximum altitude 23:33:31 51° 226° (SW) 1,995 - -73.6°
Drops below altitude 10° 23:42:47 10° 154° (SSE) 3,813 - -74.6°
Sets 23:45:58 0° 149° (SSE) 4,775 - -74.9°
